Location: Arborea
(39.7744°N, 8.5819°E)
Time: 07:42:35
(UTC+00:00)

Cosmos 332 Rocket - Pass Details

Date: 30 May 2022
Orbit: 681 x 703 km, 74.0° (Epoch: 02 July)

Event Time Altitude Azimuth Distance (km) Brightness Sun altitude
Exits shadow 22:51:52 23° 69° (ENE) 1,430 5.5 -27.9°
Drops below altitude 10° 22:54:24 10° 42° (NE) 2,127 6.8 -28.0°
Sets 22:56:58 0° 31° (NNE) 3,048 7.8 -28.0°
